STARLINK-35400

Last updated on Sun Dec 07 2025 00:02:05 GMT+0000 (Coordinated Universal Time)

1 66333U 25253Q 25340.58335648 .00140639 00000+0 33242-2 0 9992 2 66333 43.0002 20.8116 0001492 278.0604 179.3307 15.40591460 5946
UTC large
Height (km)
Speed (km/s)
/
Latitude / Longitude
Inclination (degrees)
Orbital Period (minutes)
Azimuth
Elevation
Range (km)
Doppler Factor

Next 0 passes for location: London (51.5072 / 0.1276)

Sorry there are no passes over London.